TimeMST,TemperatureF,Dew PointF,Humidity,Sea Level PressureIn,VisibilityMPH,Wind Direction,Wind SpeedMPH,Gust SpeedMPH,PrecipitationIn,Events,Conditions,WindDirDegrees,DateUTC
12:54 AM,54.0,39.9,59,30.12,10.0,Calm,Calm,-,0.00,,Clear,0,2013-01-25 07:54:00
1:54 AM,53.1,39.9,61,30.11,10.0,Calm,Calm,-,N/A,,Unknown,0,2013-01-25 08:54:00
2:54 AM,53.1,37.9,57,30.07,10.0,East,3.5,-,N/A,,Clear,90,2013-01-25 09:54:00
3:54 AM,52.0,39.0,61,30.09,10.0,Calm,Calm,-,N/A,,Clear,0,2013-01-25 10:54:00
4:54 AM,46.9,37.0,68,30.09,10.0,Calm,Calm,-,N/A,,Clear,0,2013-01-25 11:54:00
5:54 AM,46.0,37.0,71,30.10,10.0,Calm,Calm,-,N/A,,Clear,0,2013-01-25 12:54:00
6:54 AM,45.0,36.0,71,30.12,10.0,NE,3.5,-,N/A,,Clear,50,2013-01-25 13:54:00
7:54 AM,48.0,37.0,66,30.12,10.0,East,5.8,-,N/A,,Clear,80,2013-01-25 14:54:00
8:54 AM,54.0,39.0,57,30.11,10.0,Calm,Calm,-,N/A,,Clear,0,2013-01-25 15:54:00
9:54 AM,62.1,37.9,41,30.10,10.0,Calm,Calm,-,N/A,,Clear,0,2013-01-25 16:54:00
10:54 AM,66.0,37.0,34,30.09,10.0,Calm,Calm,-,N/A,,Clear,0,2013-01-25 17:54:00
11:54 AM,70.0,37.9,31,30.05,10.0,Calm,Calm,-,N/A,,Clear,0,2013-01-25 18:54:00
12:54 PM,71.1,37.9,30,30.01,10.0,WNW,5.8,-,N/A,,Clear,300,2013-01-25 19:54:00
1:54 PM,72.0,39.0,30,29.98,10.0,Variable,3.5,-,N/A,,Partly Cloudy,0,2013-01-25 20:54:00
2:54 PM,72.0,39.0,30,29.96,10.0,Calm,Calm,-,N/A,,Partly Cloudy,0,2013-01-25 21:54:00
3:54 PM,72.0,37.9,29,29.95,10.0,South,5.8,-,N/A,,Mostly Cloudy,180,2013-01-25 22:54:00
4:54 PM,70.0,39.0,32,29.95,10.0,SSW,3.5,-,N/A,,Mostly Cloudy,200,2013-01-25 23:54:00
5:54 PM,66.9,37.9,34,29.96,10.0,SSW,3.5,-,N/A,,Scattered Clouds,200,2013-01-26 00:54:00
6:54 PM,66.0,37.9,36,29.99,10.0,SSE,3.5,-,N/A,,Overcast,150,2013-01-26 01:54:00
7:54 PM,64.9,37.9,37,29.98,10.0,SSE,3.5,-,N/A,,Overcast,160,2013-01-26 02:54:00
8:54 PM,64.0,39.0,40,29.97,10.0,South,8.1,-,N/A,,Mostly Cloudy,170,2013-01-26 03:54:00
9:54 PM,64.0,41.0,43,29.96,10.0,South,8.1,-,N/A,,Overcast,180,2013-01-26 04:54:00
10:54 PM,60.1,45.0,57,29.95,10.0,SE,10.4,-,N/A,,Mostly Cloudy,140,2013-01-26 05:54:00
11:54 PM,60.1,46.9,62,29.93,10.0,SSE,11.5,-,N/A,,Overcast,160,2013-01-26 06:54:00